IRIDIUM 33 DEB, 34985

Orbit data source: Space-Track

IRIDIUM 33 DEB, 34985 is space debris in LEO originally from a launch on Sun, 14 Sep 1997 UTC launched from the Tyuratam Missile And Space Complex (TTMTR). The debris from Iridium 33, an American commercial communications satellite, has been tracked extensively since its accidental collision with the defunct Russian satellite Cosmos 2251 in 2009. This event, occurring at high speed in low Earth orbit (LEO), generated thousands of pieces of space debris, significantly increasing the risk of further collisions. The Iridium 33 debris cloud has impacted space traffic management and orbital debris mitigation strategies, making it a subject of ongoing study in space situational awareness.

Loading next visibility...
Identifier
34985, 1997-051NR
Orbit
LEO
Country
Flag of USUS
Related business
Manufacturer
Unknown
Mission
Spacecraft
Bus & Motor
Unknown
Mass
Unknown
Launch date (UTC)
1997-09-14 (28 years ago)
Launch vehicle
Unknown
Launch site
Tyuratam Missile And Space Complex (TTMTR)
Object type
Payload
Rocket body
Debris
Shape & HBR
Unknown shape, 0.1 m
Radar Cross Section
Small (<0.1 m²)

Expand to show TLE details & history
Last TLE update: 1 day ago

TLE from 1 day ago
0 IRIDIUM 33 DEB
1 34985U 97051NR  26036.97259021  .00003432  00000-0  10310-2 0  9992
2 34985  86.3683  33.2994 0023332  47.1810 342.0411 14.42297142879712
Epoch: 2026-02-05T23:20Z
TLE epoch observation values (Epoch: 2026-02-05T23:20:31.794Z)
Latitude
29.12208°
Longitude
-90.93473°
Altitude
738.845 km
Speed
7.496 km/s
True Right ascension
02h 21m 15s
True Declination
28° 58' 33"
Sunlit
Object was in daylight at epoch
Visualization orbit readout
Latitude
Unknown
Longitude
Unknown
Altitude
Unknown
Speed
Unknown
Apparent Right ascension
Unknown
Apparent Declination
Unknown
Sunlit
N/A
Visualization observer readout
Local Sidereal Time
12:53:56
Azimuth
Unknown
Elevation
Unknown
Doppler factor
Unknown
Orbital elements
Apogee altitude
764.499 km
Perigee altitude
731.246 km
Semi-major axis
7,126.009 km
Eccentricity
0.00233
Inclination
86.3683°
RAAN
33.2994°
Arg. of periapsis
47.181°
True anomaly
341.95843°
Mean anomaly
342.0411°
Eccentric anomaly
341.99979°
Mean motion
3.60806 °/min
Orbital period
99.78 mins
BSTAR
0.001031
Loading maneuver chart data...
Computing Atmospheric mass density...

Documentation

Showing up to 5 results
|